Flag for Papua New Guinea Weather past 2 weeks in Port Moresby, Papua New Guinea

Now
88 °F

Scattered clouds.


Feels Like: 94 °F
Forecast: 72 / 87 °F
Wind: 12 mph from South

Location: Moresby

Current Time: Aug 1, 2014 at 2:30:09 PM

Latest Report: Aug 1, 2014 at 2:00 PM


Visibility: N/A

Pressure: 29.83 "Hg

Humidity: 59%

Dew point: 72 °F

Location of Port MoresbyLocation

Historic Weather in Port Moresby — Graph

°F

Port Moresby temperature yesterday

Maximum temperature yesterday: 88 °F (at 1:00 PM)
Minimum temperature yesterday: 73 °F (at 5:00 AM)
Average temperature yesterday: 79 °F

Past Weeks' High & Low Weather Summary

 TemperatureHumidityPressure
High88 °F (Jul 27, 2:00 PM)100% (Jul 27, 6:00 AM)29.98 "Hg (Jul 27, 6:00 AM)
Low70 °F (Jul 19, 6:00 AM)32% (Jul 23, 3:00 PM)29.77 "Hg (Jul 17, 3:00 PM)
Average78 °F70%29.87 "Hg
* Reported Jul 17 1:00 PM — Aug 1 1:00 PM, Port Moresby, Weather by CustomWeather, © 2014

Note: Actual official high and low records may vary slightly from our data, if they occured in-between our weather recording intervals... More about our weather records

Advertising

Port Moresby weather history for previous 24 hours

 ConditionsComfort  
Time TempWeatherWind HumidityBarometerVisibility
1:00 PM
Aug 1
88 °FScattered clouds.12 mph59%29.86 "HgN/A
12:00 PM86 °FScattered clouds.6 mph62%29.86 "HgN/A
11:00 AM86 °FPassing clouds.6 mph62%29.89 "HgN/A
10:00 AM82 °FPassing clouds.3 mph70%29.92 "HgN/A
9:00 AM82 °FPassing clouds.6 mph70%29.92 "HgN/A
8:00 AM79 °FScattered clouds.5 mph84%29.92 "HgN/A
7:00 AM75 °FScattered clouds.No wind94%29.89 "HgN/A
6:00 AM75 °FPassing clouds.No wind94%29.89 "HgN/A
1:00 AM77 °FPassing clouds.7 mph83%29.89 "HgN/A
12:00 AM77 °FPassing clouds.7 mph83%29.89 "HgN/A
11:00 PM
Jul 31
77 °FPassing clouds.7 mph83%29.89 "HgN/A
10:00 PM77 °FPassing clouds.6 mph83%29.89 "HgN/A
9:00 PM77 °FPassing clouds.6 mph83%29.89 "HgN/A
8:00 PM79 °FPassing clouds.3 mph84%29.86 "HgN/A
7:00 PM79 °FPassing clouds.2 mph79%29.83 "HgN/A
6:00 PM81 °FScattered clouds.5 mph74%29.83 "HgN/A
5:00 PM82 °FPassing clouds.9 mph74%29.80 "HgN/A
4:00 PM86 °FPartly sunny.9 mph66%29.80 "HgN/A
3:00 PM86 °FBroken clouds.14 mph62%29.80 "HgN/A
2:00 PM88 °FScattered clouds.8 mph55%29.80 "HgN/A
Weather by CustomWeather, © 2014

See weather overviewHow to use our weather pages